Weather History for KBWG - October, 2012

Change the Weather History Date:

Thursday, October 18, 2012

  Actual Average Record
Temperature  
Mean Temperature 60 °F 58 °F  
Max Temperature 68 °F 71 °F 88 °F (1963)
Min Temperature 51 °F 46 °F 27 °F (1948)
Degree Days  
Heating Degree Days 5 8  
Month to date heating degree days 119 102  
Since 1 July heating degree days 152 138  
Cooling Degree Days 0 1  
Month to date cooling degree days 5 27  
Year to date cooling degree days 1928 1482  
Growing Degree Days 9 (Base 50)    
Moisture  
Dew Point 47 °F    
Average Humidity 60    
Maximum Humidity 93    
Minimum Humidity 26    
Precipitation  
Precipitation 0.19 in 0.11 in 2.22 in (2004)
Month to date precipitation 2.65 1.95  
Year to date precipitation 34.13 39.44  
Snow  
Snow 0.00 in 0.00 in T in (1989)
Month to date snowfall 0.0 0.0  
Since 1 July snowfall 0.0 0.0  
Since 1 September snowfall 0.0 0.0  
Snow Depth 0.00 in    
Sea Level Pressure  
Sea Level Pressure 29.69 in    
Wind  
Wind Speed 10 mph (SW)    
Max Wind Speed 21 mph    
Max Gust Speed 28 mph    
Visibility 8 miles    
Events Rain , Thunderstorm    
T = Trace of Precipitation, MM = Missing Value Source: NWS Daily Summary

Daily Weather History Graph

Daily Weather History Graph

Search for Another Location

Airport or City:

Trip Planner

Search our weather history database for the weather conditions in past years. The results will help you decide how hot, cold, wet, or windy it might be!

Date:

Astronomy

Oct. 18, 2012 Rise Set
Actual Time 6:56 AM CDT 6:04 PM CDT
Civil Twilight 6:30 AM CDT 6:30 PM CDT
Nautical Twilight 6:00 AM CDT 7:00 PM CDT
Astronomical Twilight 5:29 AM CDT 7:30 PM CDT
Moon 10:32 AM CDT (10/18) 8:43 PM CDT (10/18)
Length of Visible Light 12h 00m
Length of Day
11h 07m
Waxing Crescent, 14% of the Moon is Illuminated
Oct 18
Waxing Crescent
Oct 21
First Quarter
Oct 29
Full
Nov 6
Last Quarter
Nov 13
New

Hourly Weather History & Observations

Time (CDT) Temp. Dew Point Humidity Pressure Visibility Wind Dir Wind Speed Gust Speed Precip Events Conditions
12:00 AM 62.6 °F 53.6 °F 72% 29.68 in 3.0 mi West 18.4 mph 34.5 mph 0.06 in Rain , Thunderstorm Heavy Thunderstorms and Rain
12:10 AM 60.8 °F 55.4 °F 82% 29.67 in 2.5 mi West 17.3 mph 29.9 mph 0.16 in Rain , Thunderstorm Heavy Thunderstorms and Rain
12:21 AM 59.0 °F 55.4 °F 88% 29.67 in 3.0 mi WSW 13.8 mph 20.7 mph 0.24 in Rain , Thunderstorm Heavy Rain
12:29 AM 60.8 °F 55.4 °F 82% 29.68 in 2.5 mi WSW 11.5 mph 20.7 mph 0.30 in Rain Heavy Rain
12:37 AM 59.0 °F 55.4 °F 88% 29.69 in 3.0 mi WSW 5.8 mph - 0.35 in Rain Heavy Rain
12:53 AM 59.0 °F 55.0 °F 87% 29.68 in 3.0 mi SW 5.8 mph - 0.46 in Rain Heavy Rain
1:34 AM 57.2 °F 55.4 °F 94% 29.63 in 7.0 mi ESE 11.5 mph - 0.16 in Rain , Thunderstorm Rain
1:53 AM 57.9 °F 55.9 °F 93% 29.59 in 10.0 mi SE 17.3 mph - 0.17 in Rain , Thunderstorm Light Rain
1:57 AM 57.2 °F 55.4 °F 94% 29.58 in 10.0 mi ESE 15.0 mph 20.7 mph 0.00 in Rain Light Rain
2:53 AM 59.0 °F 55.0 °F 87% 29.61 in 10.0 mi SSW 9.2 mph - 0.00 in   Clear
3:53 AM 57.9 °F 54.0 °F 87% 29.62 in 10.0 mi SSW 10.4 mph - N/A   Scattered Clouds
4:32 AM 57.2 °F 55.4 °F 94% 29.66 in 5.0 mi West 8.1 mph - 0.05 in Rain Light Rain
4:39 AM 57.2 °F 53.6 °F 88% 29.66 in 10.0 mi West 10.4 mph - 0.05 in Rain Light Rain
4:53 AM 57.9 °F 54.0 °F 87% 29.67 in 10.0 mi West 8.1 mph - 0.05 in   Overcast
5:53 AM 55.9 °F 52.0 °F 87% 29.69 in 10.0 mi WSW 5.8 mph - N/A   Clear
6:53 AM 54.0 °F 51.1 °F 90% 29.70 in 10.0 mi SW 5.8 mph - N/A   Clear
7:53 AM 55.0 °F 51.1 °F 86% 29.74 in 10.0 mi SSW 8.1 mph - N/A   Clear
8:53 AM 57.9 °F 52.0 °F 81% 29.76 in 10.0 mi SW 15.0 mph - N/A   Clear
9:53 AM 61.0 °F 48.9 °F 64% 29.75 in 10.0 mi SW 9.2 mph - N/A   Clear
10:53 AM 63.0 °F 43.0 °F 48% 29.75 in 10.0 mi SW 15.0 mph - N/A   Clear
11:53 AM 64.9 °F 37.0 °F 36% 29.75 in 10.0 mi SW 10.4 mph - N/A   Clear
12:53 PM 66.9 °F 32.0 °F 27% 29.74 in 10.0 mi SW 17.3 mph 27.6 mph N/A   Partly Cloudy
1:53 PM 66.0 °F 30.0 °F 26% 29.73 in 10.0 mi WSW 17.3 mph 25.3 mph N/A   Scattered Clouds
2:53 PM 66.0 °F 30.9 °F 27% 29.71 in 10.0 mi WSW 10.4 mph 19.6 mph N/A   Overcast
3:53 PM 66.0 °F 33.1 °F 29% 29.70 in 10.0 mi WSW 9.2 mph - N/A   Mostly Cloudy
4:53 PM 66.0 °F 33.1 °F 29% 29.70 in 10.0 mi SW 12.7 mph - N/A   Clear
5:53 PM 64.0 °F 35.1 °F 34% 29.70 in 10.0 mi SW 9.2 mph - N/A   Scattered Clouds
6:53 PM 62.1 °F 36.0 °F 38% 29.72 in 10.0 mi WSW 4.6 mph - N/A   Mostly Cloudy
7:53 PM 59.0 °F 37.0 °F 44% 29.74 in 10.0 mi WSW 6.9 mph - N/A   Clear
10:53 PM 52.0 °F 37.0 °F 57% 29.74 in 10.0 mi SSW 6.9 mph - N/A   Clear
11:53 PM 52.0 °F 36.0 °F 54% 29.73 in 10.0 mi South 9.2 mph - N/A   Clear